Eastover, SC

12:00 AM EDT on April 30, 2017 (GMT -0400)
McEntire Angs

Weather History for KMMT - October, 2011

Change the Weather History Date:

Wednesday, October 26, 2011

  Actual Average Record
Temperature  
Mean Temperature 60 °F -  
Max Temperature 78 °F 71 °F 85 °F (2014)
Min Temperature 44 °F 50 °F 30 °F (2013)
Degree Days  
Heating Degree Days 4    
Growing Degree Days 10 (Base 50)    
Moisture  
Dew Point 47 °F    
Average Humidity 84    
Maximum Humidity 100    
Minimum Humidity 36    
Precipitation  
Precipitation 0.00 in - - ()
Sea Level Pressure  
Sea Level Pressure 30.11 in    
Wind  
Wind Speed 2 mph (SW)    
Max Wind Speed 14 mph    
Max Gust Speed 18 mph    
Visibility 6 miles    
Events      
Averages and records for this station are not official NWS values.
T = Trace of Precipitation, MM = Missing Value Source: NWS Daily Summary

Daily Weather History Graph

Daily Weather History Graph

Search for Another Location

Airport or City:

Trip Planner

Search our weather history database for the weather conditions in past years. The results will help you decide how hot, cold, wet, or windy it might be!

Date:

Astronomy

Oct. 26, 2011 Rise Set
Actual Time 7:37 AM EDT 6:36 PM EDT
Civil Twilight 7:11 AM EDT 7:02 PM EDT
Nautical Twilight 6:42 AM EDT 7:31 PM EDT
Astronomical Twilight 6:13 AM EDT 8:00 PM EDT
Moon 7:20 AM EDT (10/26) 6:21 PM EDT (10/26)
Length of Visible Light 11h 50m
Length of Day
10h 59m
Waning Crescent, 0% of the Moon is Illuminated
Oct 26
Waning Crescent
Oct 26
New
Nov 2
First Quarter
Nov 10
Full
Nov 18
Last Quarter

Hourly Weather History & Observations

Time (EDT) Temp. Dew Point Humidity Pressure Visibility Wind Dir Wind Speed Gust Speed Precip Events Conditions
12:55 AM 46.9 °F 45.0 °F 93% 30.20 in 10.0 mi East 3.5 mph - N/A   Clear
1:55 AM 47.1 °F 45.9 °F 95% 30.19 in 10.0 mi Calm Calm - N/A   Clear
2:55 AM 46.2 °F 45.1 °F 96% 30.17 in 5.0 mi Calm Calm - N/A   Clear
3:02 AM 46.4 °F 44.6 °F 93% 30.17 in 2.5 mi Calm Calm - N/A   Clear
3:08 AM 46.4 °F 44.6 °F 93% 30.16 in 3.0 mi Calm Calm - N/A   Clear
3:55 AM 45.9 °F 44.8 °F 96% 30.14 in 10.0 mi Calm Calm - N/A   Clear
4:55 AM 45.7 °F 44.8 °F 97% 30.13 in 2.5 mi Calm Calm - N/A   Clear
4:58 AM 46.4 °F 44.6 °F 93% 30.14 in 1.8 mi Calm Calm - N/A   Clear
5:00 AM 46.4 °F 44.6 °F 93% 30.14 in 1.5 mi Calm Calm - N/A   Clear
5:01 AM 46.4 °F 44.6 °F 93% 30.14 in 1.5 mi Calm Calm - N/A   Clear
5:02 AM 46.4 °F 44.6 °F 93% 30.13 in 1.8 mi Calm Calm - N/A   Clear
5:04 AM 46.4 °F 44.6 °F 93% 30.13 in 2.0 mi Calm Calm - N/A   Clear
5:06 AM 46.4 °F 44.6 °F 93% 30.13 in 3.0 mi Calm Calm - N/A   Clear
5:18 AM 46.4 °F 44.6 °F 93% 30.13 in 2.5 mi Calm Calm - N/A   Clear
5:19 AM 44.6 °F 44.6 °F 100% 30.13 in 1.8 mi Calm Calm - N/A   Clear
5:20 AM 44.6 °F 44.6 °F 100% 30.13 in 1.5 mi Calm Calm - N/A   Clear
5:21 AM 44.6 °F 44.6 °F 100% 30.13 in 1.2 mi Calm Calm - N/A   Clear
5:22 AM 44.6 °F 44.6 °F 100% 30.13 in 1.0 mi Calm Calm - N/A   Clear
5:25 AM 44.6 °F 44.6 °F 100% 30.13 in 0.8 mi Calm Calm - N/A   Clear
5:36 AM 44.6 °F 44.6 °F 100% 30.13 in 0.8 mi Calm Calm - N/A   Clear
5:38 AM 44.6 °F 44.6 °F 100% 30.13 in 1.0 mi Calm Calm - N/A   Clear
5:39 AM 44.6 °F 44.6 °F 100% 30.13 in 1.2 mi Calm Calm - N/A   Clear
5:40 AM 44.6 °F 44.6 °F 100% 30.13 in 1.5 mi Calm Calm - N/A   Clear
5:41 AM 44.6 °F 44.6 °F 100% 30.13 in 2.0 mi Calm Calm - N/A   Clear
5:43 AM 44.6 °F 44.6 °F 100% 30.13 in 4.0 mi Calm Calm - N/A   Clear
5:55 AM 45.5 °F 45.0 °F 98% 30.13 in 10.0 mi Calm Calm - N/A   Clear
6:55 AM 45.3 °F 44.8 °F 98% 30.14 in 3.0 mi Calm Calm - N/A   Scattered Clouds
7:55 AM 44.8 °F 43.9 °F 97% 30.15 in 3.0 mi Calm Calm - N/A   Partly Cloudy
8:55 AM 50.7 °F 50.2 °F 98% 30.15 in 6.0 mi Calm Calm - N/A   Partly Cloudy
9:55 AM 59.9 °F 55.8 °F 86% 30.16 in 10.0 mi SSW 4.6 mph - N/A   Partly Cloudy
10:55 AM 66.2 °F 55.8 °F 69% 30.15 in 10.0 mi SSW 9.2 mph - N/A   Partly Cloudy
11:55 AM 72.0 °F 55.4 °F 56% 30.14 in 10.0 mi WSW 10.4 mph - N/A   Partly Cloudy
12:55 PM 75.4 °F 53.2 °F 46% 30.10 in 10.0 mi West 12.7 mph - N/A   Partly Cloudy
1:55 PM 76.8 °F 50.9 °F 40% 30.06 in 10.0 mi WSW 13.8 mph 18.4 mph N/A   Partly Cloudy
2:55 PM 77.5 °F 50.4 °F 38% 30.03 in 10.0 mi WSW 10.4 mph - N/A   Clear
3:55 PM 77.9 °F 48.9 °F 36% 30.01 in 10.0 mi SW 9.2 mph - N/A   Clear
4:55 PM 77.0 °F 48.2 °F 36% 29.99 in 10.0 mi SW 9.2 mph - N/A   Scattered Clouds
5:55 PM 73.9 °F 50.0 °F 43% 29.99 in 10.0 mi SW 6.9 mph - N/A   Scattered Clouds
6:55 PM 68.4 °F 50.9 °F 54% 29.99 in 10.0 mi SSW 4.6 mph - N/A   Scattered Clouds
7:55 PM 65.5 °F 50.5 °F 58% 29.99 in 10.0 mi SSW 5.8 mph - N/A   Partly Cloudy
8:55 PM 61.3 °F 50.4 °F 67% 29.99 in 10.0 mi Calm Calm - N/A   Partly Cloudy
9:55 PM 54.1 °F 50.4 °F 87% 29.99 in 10.0 mi Calm Calm - N/A   Clear
10:55 PM 51.8 °F 48.7 °F 89% 29.99 in 10.0 mi Calm Calm - N/A   Clear
11:55 PM 51.1 °F 49.3 °F 94% 29.99 in 10.0 mi Calm Calm - N/A   Clear